(197198) = 2003 VV9 = 1998 XM49

Discovered at Palomar on 2003-11-15 by NEAT.

Orbit

Orbit type: Main Belt

Note: WebGL enabled browser required.

epoch2023-09-13.0
epoch JD2460200.5
perihelion date2020-09-19.75309
perihelion JD2459112.25309
argument of perihelion (°)152.07170
ascending node (°)330.61692
inclination (°)7.87549
eccentricity0.2067408
perihelion distance (AU)2.4306211
Tisserand w.r.t. Jupiter3.2
ΔV w.r.t. Earth (km/sec)10.1
semimajor axis (AU)3.0640943
mean anomaly (°)199.97610
mean daily motion (°/day)0.18375990
aphelion distance (AU)3.698
period (years)5.36
P-vector [x]-0.54224064
P-vector [y]0.74311011
P-vector [z]0.39212557
Q-vector [x]-0.83752933
Q-vector [y]-0.44068935
Q-vector [z]-0.32301319
absolute magnitude15.19
phase slope0.15
uncertainty0
referenceMPO 778342
observations used783
oppositions14
arc length (days)9069
first opposition used1998
last opposition used2023
residual rms (arc-secs)0.73
perturbers coarse indicatorM-v
perturbers precise indicator003Ek
first observation date used1998-12-14.0
last observation date used2023-10-13.0
computer nameMPCLINUX
JD of orbit computation2456670.862526
perihelion JD uncertainty (days)1.1085E-04
argument of perihelion uncertainty (°)4.4174E-05
ascending node uncertainty (°)3.9257E-05
inclination uncertainty (°)7.4027E-06
eccentricity uncertainty 7.2440E-08
perihelion distance uncertainty (AU)2.1422E-07
Minimum Orbit Intersection Distances (in AU)
for orbit epoch: 2460200.5, reference: E2023-TO1
Mercury2.102
Venus1.71234
Earth1.44798
Mars0.78474
Jupiter1.38954
Saturn6.18867
Uranus15.7476
Neptune26.4332

Observations

807 total observations over interval: 1998 12 14.44792 – 2023 10 13.279478
These data are available for download (format description).

Date (UT) J2000 RA J2000 Dec Magn Location Ref
1998 12 14.44792 07 06 48.80 +32 58 12.1 18.7   704 – Lincoln Laboratory ETS, New Mexico MPS 3429
1998 12 14.46977 07 06 47.74 +32 58 15.0 19.1   704 – Lincoln Laboratory ETS, New Mexico MPS 3429
1998 12 14.49168 07 06 46.67 +32 58 15.4 18.6   704 – Lincoln Laboratory ETS, New Mexico MPS 3429
1998 12 14.51352 07 06 45.59 +32 58 15.6 18.5   704 – Lincoln Laboratory ETS, New Mexico MPS 3429
1998 12 14.53534 07 06 44.53 +32 58 16.1 18.5   704 – Lincoln Laboratory ETS, New Mexico MPS 3429
1998 12 17.41325 07 04 24.41 +33 01 08.5 18.6   704 – Lincoln Laboratory ETS, New Mexico MPS 3429
1998 12 17.43598 07 04 23.16 +33 01 09.6 18.7   704 – Lincoln Laboratory ETS, New Mexico MPS 3429
1998 12 17.45864 07 04 21.86 +33 01 09.9 18.8   704 – Lincoln Laboratory ETS, New Mexico MPS 3429
1998 12 17.48140 07 04 20.75 +33 01 10.5 18.8   704 – Lincoln Laboratory ETS, New Mexico MPS 3429
1998 12 17.50431 07 04 19.43 +33 01 11.1 18.6   704 – Lincoln Laboratory ETS, New Mexico MPS 3429
1999 01 16.19427 06 35 15.93 +32 28 15.0 18.7   704 – Lincoln Laboratory ETS, New Mexico MPS 91646
1999 01 16.21623 06 35 14.68 +32 28 11.2 18.7   704 – Lincoln Laboratory ETS, New Mexico MPS 91646
1999 01 16.23820 06 35 13.57 +32 28 06.1 19.7   704 – Lincoln Laboratory ETS, New Mexico MPS 91646
1999 01 16.26028 06 35 12.15 +32 28 01.8 19.8   704 – Lincoln Laboratory ETS, New Mexico MPS 91646
2003 11 03.26207 03 22 22.30 +30 45 39.8 18.5   704 – Lincoln Laboratory ETS, New Mexico MPS 91970
2003 11 03.27420 03 22 21.62 +30 45 38.8 19.1   704 – Lincoln Laboratory ETS, New Mexico MPS 91970
2003 11 03.28665 03 22 20.92 +30 45 38.2 19.2   704 – Lincoln Laboratory ETS, New Mexico MPS 91970
2003 11 03.29902 03 22 20.24 +30 45 37.5 18.7   704 – Lincoln Laboratory ETS, New Mexico MPS 91970
2003 11 03.31102 03 22 19.56 +30 45 37.2 18.5   704 – Lincoln Laboratory ETS, New Mexico MPS 91970
2003 11 05.25435 03 20 34.58 +30 43 29.5 18.7 R 699 – Lowell Observatory-LONEOS MPS 93759
2003 11 05.27521 03 20 33.31 +30 43 28.5   699 – Lowell Observatory-LONEOS MPS 93759
2003 11 05.29615 03 20 32.20 +30 43 26.0   699 – Lowell Observatory-LONEOS MPS 93759
2003 11 05.31699 03 20 31.07 +30 43 24.9   699 – Lowell Observatory-LONEOS MPS 93759
2003 11 15.46269 03 10 51.36 +30 22 08.6 18.8   644 – Palomar Mountain/NEAT MPS 91144
2003 11 15.48324 03 10 50.14 +30 22 04.9 18.8   644 – Palomar Mountain/NEAT MPS 91144
2003 11 15.50370 03 10 48.97 +30 22 01.2 18.8   644 – Palomar Mountain/NEAT MPS 91144
2003 11 19.21427 03 07 14.24 +30 10 17.8 18.8   644 – Palomar Mountain/NEAT MPS 91970
2003 11 19.25477 03 07 11.64 +30 10 10.2 19.4   704 – Lincoln Laboratory ETS, New Mexico MPS 91144
2003 11 19.26733 03 07 11.03 +30 10 07.3 19.2   704 – Lincoln Laboratory ETS, New Mexico MPS 91144
2003 11 19.27988 03 07 10.27 +30 10 04.8 19.3   704 – Lincoln Laboratory ETS, New Mexico MPS 91144
2003 11 19.28100 03 07 10.27 +30 10 04.3 18.8   644 – Palomar Mountain/NEAT MPS 91970
2003 11 19.29236 03 07 09.49 +30 10 01.8 19.2   704 – Lincoln Laboratory ETS, New Mexico MPS 91144
2003 11 19.30505 03 07 08.75 +30 09 59.4 19.2   704 – Lincoln Laboratory ETS, New Mexico MPS 91144
2003 11 19.34552 03 07 06.42 +30 09 50.8 18.9   644 – Palomar Mountain/NEAT MPS 91970
2003 11 24.29962 03 02 26.80 +29 51 18.0 18.6 V 703 – Catalina Sky Survey MPS 91970
2003 11 24.31101 03 02 26.01 +29 51 13.9 19.2 V 703 – Catalina Sky Survey MPS 91970
2003 11 24.32237 03 02 25.58 +29 51 11.3 18.6 V 703 – Catalina Sky Survey MPS 91970
2003 11 24.33372 03 02 24.85 +29 51 09.0 19.6 V 703 – Catalina Sky Survey MPS 91970
2003 12 03.19778 02 54 52.45 +29 12 02.3 18.9 R 699 – Lowell Observatory-LONEOS MPS 92818
2003 12 03.21957 02 54 51.38 +29 11 55.8   699 – Lowell Observatory-LONEOS MPS 92818
2003 12 03.24136 02 54 50.40 +29 11 50.2   699 – Lowell Observatory-LONEOS MPS 92818
2003 12 03.26321 02 54 49.30 +29 11 42.7   699 – Lowell Observatory-LONEOS MPS 92818
2003 12 04.22756 02 54 05.39 +29 07 09.8 19.5   704 – Lincoln Laboratory ETS, New Mexico MPS 92818
2003 12 04.23955 02 54 04.86 +29 07 08.0 19.8   704 – Lincoln Laboratory ETS, New Mexico MPS 92818
2003 12 04.25160 02 54 04.22 +29 07 00.4 19.8   704 – Lincoln Laboratory ETS, New Mexico MPS 92818
2003 12 04.26376 02 54 03.59 +29 07 00.6 19.8   704 – Lincoln Laboratory ETS, New Mexico MPS 92818
2003 12 18.20597 02 45 59.51 +28 00 04.3 19.3 C 704 – Lincoln Laboratory ETS, New Mexico MPS 294337
2003 12 18.21379 02 45 59.27 +28 00 01.6 19.6 V 703 – Catalina Sky Survey MPS 93759
2003 12 18.21889 02 45 59.20 +28 00 00.2 19.2 C 704 – Lincoln Laboratory ETS, New Mexico MPS 294337
2003 12 18.22738 02 45 58.96 +27 59 57.5 20.1 V 703 – Catalina Sky Survey MPS 93759
2003 12 18.23547 02 45 58.84 +27 59 54.6 18.8 C 704 – Lincoln Laboratory ETS, New Mexico MPS 294337
2003 12 18.24095 02 45 58.57 +27 59 54.0 17.8 V 703 – Catalina Sky Survey MPS 93759
2003 12 18.25466 02 45 58.04 +27 59 47.6 17.9 V 703 – Catalina Sky Survey MPS 93759
2003 12 18.26211 02 45 58.01 +27 59 46.7 17.8 C 704 – Lincoln Laboratory ETS, New Mexico MPS 294337
2003 12 29.14101 02 43 29.50 +27 13 08.1 19.5   704 – Lincoln Laboratory ETS, New Mexico MPS 95827
2003 12 29.15504 02 43 29.45 +27 13 04.6 19.9   704 – Lincoln Laboratory ETS, New Mexico MPS 95827
2003 12 29.16841 02 43 29.33 +27 13 01.4 19.8   704 – Lincoln Laboratory ETS, New Mexico MPS 95827
2003 12 29.18156 02 43 29.24 +27 12 58.2 20.3   704 – Lincoln Laboratory ETS, New Mexico MPS 95827
2003 12 29.19471 02 43 29.29 +27 12 55.0 19.9   704 – Lincoln Laboratory ETS, New Mexico MPS 95827
2004 01 11.08914 02 45 09.32 +26 32 12.6 19.6   644 – Palomar Mountain/NEAT MPS 96636
2004 01 11.11001 02 45 09.68 +26 32 09.7 19.7   644 – Palomar Mountain/NEAT MPS 96636
2004 01 11.13166 02 45 10.07 +26 32 06.3 19.9   644 – Palomar Mountain/NEAT MPS 96636
2005 01 06.46808 12 18 34.30 -04 13 49.1 19.5 R 703 – Catalina Sky Survey MPS 130013
2005 01 06.47446 12 18 34.55 -04 13 52.2 19.5 R 703 – Catalina Sky Survey MPS 130013
2005 01 06.48083 12 18 34.76 -04 13 55.0 19.0 R 703 – Catalina Sky Survey MPS 130013
2005 01 06.48726 12 18 34.98 -04 13 57.3 21.2 R 703 – Catalina Sky Survey MPS 130013
2005 03 07.31408 12 11 16.48 -07 31 24.2 19.1   704 – Lincoln Laboratory ETS, New Mexico MPS 127983
2005 03 07.32547 12 11 15.97 -07 31 23.5 19.3   704 – Lincoln Laboratory ETS, New Mexico MPS 127983
2005 03 07.33747 12 11 15.33 -07 31 23.1 19.5   704 – Lincoln Laboratory ETS, New Mexico MPS 127983
2005 03 07.34887 12 11 14.82 -07 31 23.0 19.4   704 – Lincoln Laboratory ETS, New Mexico MPS 127983
2005 03 07.36027 12 11 14.22 -07 31 21.1 19.2   704 – Lincoln Laboratory ETS, New Mexico MPS 127983
2005 03 13.29716 12 06 22.19 -07 21 56.7 18.1   703 – Catalina Sky Survey MPS 129095
2005 03 13.30667 12 06 21.71 -07 21 55.8 18.4   703 – Catalina Sky Survey MPS 129095
2005 03 13.31616 12 06 21.26 -07 21 54.7 18.1   703 – Catalina Sky Survey MPS 129095
2005 03 13.32566 12 06 20.69 -07 21 53.9 18.1   703 – Catalina Sky Survey MPS 129095
2005 04 05.25478 11 47 18.86 -06 18 35.5 18.2 R 703 – Catalina Sky Survey MPS 130745
2005 04 05.26121 11 47 18.64 -06 18 34.5 18.1 R 703 – Catalina Sky Survey MPS 130745
2005 04 05.26767 11 47 18.34 -06 18 33.7 18.9 R 703 – Catalina Sky Survey MPS 130745
2005 04 05.27414 11 47 17.98 -06 18 33.2 18.6 R 703 – Catalina Sky Survey MPS 130745
2005 04 07.23273 11 45 54.35 -06 12 31.1 19.0   704 – Lincoln Laboratory ETS, New Mexico MPS 130745
2005 04 07.24326 11 45 53.97 -06 12 29.1 19.1   704 – Lincoln Laboratory ETS, New Mexico MPS 130745
2005 04 07.25307 11 45 53.58 -06 12 26.7 18.9   704 – Lincoln Laboratory ETS, New Mexico MPS 130745
2005 04 07.27437 11 45 52.64 -06 12 23.6 19.3   704 – Lincoln Laboratory ETS, New Mexico MPS 130746
2005 04 15.26696 11 40 55.17 -05 49 13.9 18.6 R 703 – Catalina Sky Survey MPS 132597
2005 04 15.27561 11 40 54.92 -05 49 13.8 18.6 R 703 – Catalina Sky Survey MPS 132597
2005 04 15.28423 11 40 54.61 -05 49 11.6 18.9 R 703 – Catalina Sky Survey MPS 132597
2005 04 15.29282 11 40 54.20 -05 49 11.0 19.9 R 703 – Catalina Sky Survey MPS 132597
2008 09 23.25629 01 10 51.42 +16 09 29.9 19.9 V 703 – Catalina Sky Survey MPS 256644
